カタログに戻る

OV1-5 DEB

運用中VLEO
NORAD 5599·DEBRIS·🇺🇸 United States

打ち上げ Mar 30, 1966 から Vandenberg Space Force Base

Loading…

次のパス (今後24時間)

TLE

最新Source: Space-Track

元期: Sep 14, 2026, 05:16 UTC

1 05599U 66025G   26257.22006312  .00091499  00000-0  39892-2 0  9990
2 05599 144.6060  18.7746 0012687 358.8129   1.2562 15.20454086118151

AllMySatでOV1-5 DEBをリアルタイム追跡

Download on the App Store